Simultaneous Nadir Overpasses (SNOs) Predictions

Prediction of SNOs between GOES-16 and NOAA-19 Satellite Orbit:

Table of predicted SNOs for the next 14.0 days since TLE Epoch: 4/25/2025
Index Date Time (GOES-16) GOES-16 Lat,Lon NOAA-19 Lat,Lon Distance(km) Time Diff (sec)
1 04/26/2025 15:07:19 0.07, -83.40 -0.44, -81.02 270.44 80
2 04/29/2025 03:28:52 -0.07, -84.67 -0.30, -85.57 103.87 80
3 04/30/2025 03:13:37 -0.06, -85.18 0.52, -82.54 300.52 80
4 05/01/2025 15:47:27 0.06, -85.98 0.98, -90.07 466.02 80
5 05/02/2025 15:34:52 0.05, -86.49 0.20, -87.02 61.30 80
6 05/03/2025 15:19:38 0.05, -87.00 -0.65, -83.99 343.63 80
7 05/05/2025 03:53:45 -0.04, -87.78 -0.94, -91.57 434.19 80
8 05/06/2025 03:41:10 -0.04, -88.29 -0.09, -88.54 28.60 80
9 05/07/2025 03:25:55 -0.04, -88.81 0.70, -85.50 377.14 80
10 05/08/2025 15:59:44 0.04, -89.63 0.80, -93.02 386.92 80
11 05/09/2025 15:44:29 0.04, -90.15 0.00, -89.98 19.15 80
